Retour au catalogue

OPS 7613

P/L 6

ActifMilitaireLEO
NORAD 4295·PAYLOAD·🇺🇸 United States

Lancé Sep 30, 1969 depuis Vandenberg Space Force Base

Loading…

Prochains Passages (prochaines 24 heures)

TLE

FraisSource: Space-Track

Époque: Sep 14, 2026, 00:30 UTC

1 04295U 69082G   26257.02111222 -.00000019  00000-0  24842-4 0  9993
2 04295  70.0106 279.7971 0019274  24.0890 336.1112 13.95606510897887

Suivez OPS 7613 en temps réel avec AllMySat

Download on the App Store